Simultaneous Nadir Overpasses (SNOs) Predictions

Prediction of SNOs between AQUA and GOES-15 Satellite Orbit:

Table of predicted SNOs for the next 14.0 days since TLE Epoch: 12/20/2014
Index Date Time (AQUA) AQUA Lat,Lon GOES-15 Lat,Lon Distance(km) Time Diff (sec)
1 12/21/2014 22:23:17 0.82,-131.99 0.07,-135.36 384.10 80
2 12/22/2014 10:44:33 0.28,-137.15 -0.08,-135.39 199.38 80
3 12/24/2014 10:32:23 -0.32,-134.19 -0.08,-135.37 133.89 80
4 12/24/2014 22:53:48 -0.76,-139.39 0.09,-135.32 461.79 80
5 12/26/2014 10:20:13 -0.97,-131.24 -0.08,-135.34 466.94 80
6 12/26/2014 22:41:37 -0.16,-136.43 0.09,-135.30 128.63 80
7 12/28/2014 22:29:26 0.49,-133.47 0.09,-135.26 204.46 80
8 12/29/2014 10:50:41 0.63,-138.62 -0.10,-135.30 378.44 80
9 12/31/2014 10:38:29 -0.02,-135.66 -0.09,-135.26 45.50 80
10 01/02/2015 10:26:15 -0.60,-132.68 -0.09,-135.22 287.33 80
11 01/02/2015 22:47:39 -0.47,-137.88 0.10,-135.16 308.89 80




NCC Satellite Simultaneous Nadir Overpasses (SNOs) Prediction Service
